CW2578 Weather Reports


Display with metric or nautical units.
time (UTC)temp
F
wind
direction
speed
MPH
gust
MPH
rain 1hr
in
rain 24hr
in
rain mn
in
humidity
%
barometer
mb
20260504191943 78 298 4.0 14.0 0.00 0.00 0.00 48 1001.7
20260504190444 76 256 4.0 14.0 0.00 0.00 0.00 54 1002.0
20260504184943 77 131 3.0 14.0 0.00 0.00 0.00 56 1002.2
20260504183443 76 202 3.0 11.0 0.00 0.00 0.00 54 1002.4
20260504181944 75 223 3.0 12.0 0.00 0.00 0.00 55 1002.5
20260504180525 76 261 3.0 13.0 0.00 0.00 0.00 57 1002.6
20260504174944 74 205 3.0 16.0 0.00 0.00 0.00 57 1002.9
20260504173526 75 169 3.0 10.0 0.00 0.00 0.00 56 1002.9
20260504172004 74 340 3.0 16.0 0.00 0.00 0.00 53 1003.3
20260504170443 73 101 3.0 12.0 0.00 0.00 0.00 54 1003.6
20260504160443 72 173 3.0 12.0 0.00 0.00 0.00 50 1004.5
20260504150444 69 155 2.0 10.0 0.00 0.00 0.00 57 1005.1
20260504140443 65 181 2.0 6.0 0.00 0.00 0.00 66 1005.8
20260504130505 60 196 2.0 7.0 0.00 0.00 0.00 69 1006.3
20260504110444 49 171 2.0 4.0 0.00 0.00 0.00 83 1006.5
20260504100444 50 227 2.0 8.0 0.00 0.00 0.00 81 1006.2
20260504082005 49 178 3.0 5.0 0.00 0.00 0.00 82 1006.5
20260504080445 49 163 3.0 2.0 0.00 0.00 0.00 82 1006.6
20260504050506 52 173 4.0 8.0 0.00 0.00 0.00 77 1008.6
20260504044946 52 257 4.0 7.0 0.00 0.00 0.00 77 1008.7
20260504043444 52 263 4.0 7.0 0.00 0.00 0.00 76 1008.8
20260504041945 52 188 5.0 8.0 0.00 0.00 0.00 76 1008.9
20260504040526 52 248 4.0 6.0 0.00 0.00 0.00 76 1008.9
20260504035027 52 174 5.0 9.0 0.00 0.00 0.00 76 1009.0
20260504033445 52 151 5.0 10.0 0.00 0.00 0.00 75 1009.1
20260504031945 52 172 5.0 10.0 0.00 0.00 0.00 75 1009.0
20260504030445 52 228 5.0 9.0 0.00 0.00 0.00 75 1009.2
20260504024945 52 163 5.0 8.0 0.00 0.00 0.00 77 1009.3
20260504023445 52 182 5.0 8.0 0.00 0.00 0.00 78 1009.3
20260504021945 52 178 5.0 11.0 0.00 0.00 0.00 79 1009.2
20260504020445 52 157 5.0 10.0 0.00 0.00 0.00 80 1009.2
20260504015007 52 159 5.0 10.0 0.00 0.00 0.00 81 1009.2
20260504013445 52 163 5.0 7.0 0.00 0.00 0.00 81 1009.3
20260504012006 52 160 5.0 9.0 0.00 0.00 0.00 80 1009.5
20260504010507 52 169 5.0 8.0 0.00 0.00 0.00 80 1009.6
20260504004945 53 184 5.0 8.0 0.00 0.00 0.00 79 1009.6
20260504003445 53 157 5.0 10.0 0.00 0.00 0.00 78 1009.5
20260504002006 54 162 5.0 8.0 0.00 0.00 0.00 77 1009.6
20260504000507 54 215 5.0 8.0 0.00 0.00 0.00 76 1009.8
20260503234945 54 216 5.0 12.0 0.00 0.00 0.00 74 1010.0
20260503233445 55 171 5.0 11.0 0.00 0.00 0.00 72 1010.2
20260503231945 56 200 5.0 10.0 0.00 0.00 0.00 71 1010.6
20260503230507 56 230 5.0 12.0 0.00 0.00 0.00 70 1010.6
20260503224945 56 237 5.0 12.0 0.00 0.00 0.00 71 1010.7
20260503223506 55 181 5.0 15.0 0.00 0.00 0.00 70 1011.0
20260503221945 55 252 5.0 13.0 0.00 0.00 0.00 70 1011.3
20260503220506 54 192 5.0 14.0 0.00 0.00 0.00 71 1011.5
20260503214945 54 177 5.0 11.0 0.00 0.00 0.00 74 1011.5
20260503213446 52 279 5.0 10.0 0.00 0.00 0.00 77 1011.7
20260503212007 51 177 5.0 9.0 0.00 0.00 0.00 77 1012.0
20260503210445 51 164 5.0 10.0 0.00 0.00 0.00 76 1012.1
20260503204947 51 148 5.0 14.0 0.00 0.00 0.00 75 1012.5
20260503203445 51 192 4.0 10.0 0.00 0.00 0.00 76 1012.7
20260503202008 51 155 4.0 12.0 0.00 0.00 0.00 75 1013.0
20260503200507 52 153 4.0 12.0 0.00 0.00 0.00 73 1013.5
20260503194945 52 182 4.0 14.0 0.00 0.00 0.00 73 1014.1
20260503193508 52 235 4.0 10.0 0.00 0.00 0.00 72 1014.4
20260503192028 52 232 4.0 19.0 0.00 0.00 0.00 71 1014.7